Albuquerque, NM

2:13 AM MDT on June 20, 2018 (GMT -0600)
Albuquerque International Sunport

Weather History for KABQ - August, 2017

Change the Weather History Date:

Sunday, August 13, 2017

  Actual Average Record
Temperature  
Mean Temperature 78 °F 77 °F  
Max Temperature 89 °F 88 °F 100 °F (1994)
Min Temperature 66 °F 66 °F 52 °F (1920)
Degree Days  
Heating Degree Days 0 0  
Month to date heating degree days 0 0  
Since 1 June heating degree days 0 4  
Since 1 July heating degree days 0 0  
Cooling Degree Days 13 12  
Month to date cooling degree days 166 156  
Year to date cooling degree days 1122 967  
Since 1 June cooling degree days 1043 869  
Growing Degree Days 27 (Base 50)    
Moisture  
Dew Point 55 °F    
Average Humidity 52    
Maximum Humidity 81    
Minimum Humidity 23    
Precipitation  
Precipitation T in 0.06 in 0.63 in (2001)
Month to date precipitation 0.72 0.75  
Year to date precipitation 4.66 5.45  
Snow  
Snow 0.00 in - - ()
Month to date snowfall 0.0  
Since 1 June snowfall T  
Since 1 July snowfall 0.0  
Snow Depth 0.00 in    
Sea Level Pressure  
Sea Level Pressure 29.84 in    
Wind  
Wind Speed 8 mph (South)    
Max Wind Speed 20 mph    
Max Gust Speed 23 mph    
Visibility 10 miles    
Events      
T = Trace of Precipitation, MM = Missing Value Source: NWS Daily Summary

Daily Weather History Graph

Daily Weather History Graph

Search for Another Location

Airport or City:

Astronomy

Aug. 13, 2017 Rise Set
Actual Time 6:25 AM MDT 7:56 PM MDT
Civil Twilight 5:58 AM MDT 8:23 PM MDT
Nautical Twilight 5:25 AM MDT 8:55 PM MDT
Astronomical Twilight 4:51 AM MDT 9:29 PM MDT
Moon 11:47 PM MDT (8/13) 12:14 PM MDT (8/13)
Length of Visible Light 14h 25m
Length of Day
13h 31m
Waning Gibbous, 65% of the Moon is Illuminated
Aug 13
Waning Gibbous
Aug 14
Last Quarter
Aug 21
New
Aug 29
First Quarter
Sep 6
Full

Hourly Weather History & Observations

Time (MDT) Temp. Heat Index Dew Point Humidity Pressure Visibility Wind Dir Wind Speed Gust Speed Precip Events Conditions
12:52 AM 72.0 °F - 62.1 °F 71% 29.91 in 10.0 mi South 5.8 mph - N/A   Mostly Cloudy
1:52 AM 71.1 °F - 62.1 °F 73% 29.88 in 10.0 mi SE 8.1 mph - N/A   Mostly Cloudy
2:52 AM 70.0 °F - 62.1 °F 76% 29.88 in 10.0 mi SE 8.1 mph - N/A   Mostly Cloudy
3:52 AM 69.1 °F - 62.1 °F 78% 29.88 in 10.0 mi SE 3.5 mph - N/A   Mostly Cloudy
4:52 AM 68.0 °F - 61.0 °F 78% 29.87 in 10.0 mi ESE 5.8 mph - 0.00 in   Mostly Cloudy
5:52 AM 68.0 °F - 61.0 °F 78% 29.88 in 10.0 mi South 5.8 mph - N/A   Scattered Clouds
6:52 AM 66.9 °F - 61.0 °F 81% 29.89 in 10.0 mi Calm Calm - N/A   Mostly Cloudy
7:52 AM 69.1 °F - 61.0 °F 75% 29.91 in 10.0 mi ESE 5.8 mph - N/A   Mostly Cloudy
8:52 AM 71.1 °F - 60.1 °F 68% 29.91 in 10.0 mi South 3.5 mph - N/A   Mostly Cloudy
9:52 AM 75.0 °F - 57.9 °F 55% 29.92 in 10.0 mi Variable 3.5 mph - N/A   Mostly Cloudy
10:52 AM 79.0 °F - 52.0 °F 39% 29.91 in 10.0 mi North 10.4 mph - N/A   Mostly Cloudy
11:52 AM 80.1 °F - 51.1 °F 36% 29.90 in 10.0 mi Variable 3.5 mph - N/A   Mostly Cloudy
12:52 PM 82.0 °F 81.2 °F 53.1 °F 37% 29.87 in 10.0 mi SE 5.8 mph - N/A   Mostly Cloudy
1:52 PM 84.9 °F - 51.1 °F 31% 29.84 in 10.0 mi West 8.1 mph - N/A   Mostly Cloudy
2:52 PM 87.1 °F - 50.0 °F 28% 29.79 in 10.0 mi WSW 9.2 mph - N/A   Mostly Cloudy
3:52 PM 87.1 °F - 48.9 °F 27% 29.76 in 10.0 mi Calm Calm - N/A   Mostly Cloudy
4:52 PM 88.0 °F - 46.9 °F 24% 29.73 in 10.0 mi SW 12.7 mph 16.1 mph N/A   Mostly Cloudy
5:52 PM 89.1 °F - 46.0 °F 22% 29.72 in 10.0 mi SSW 10.4 mph - N/A   Mostly Cloudy
6:52 PM 86.0 °F - 46.0 °F 25% 29.73 in 10.0 mi WSW 13.8 mph - N/A   Mostly Cloudy
7:52 PM 82.0 °F - 51.1 °F 34% 29.74 in 10.0 mi South 16.1 mph - 0.00 in   Scattered Clouds
8:52 PM 77.0 °F - 53.1 °F 43% 29.78 in 10.0 mi SSE 17.3 mph - N/A   Mostly Cloudy
9:52 PM 77.0 °F - 52.0 °F 42% 29.81 in 10.0 mi SSW 6.9 mph - N/A   Mostly Cloudy
10:52 PM 75.0 °F - 55.0 °F 50% 29.80 in 10.0 mi SE 11.5 mph - N/A   Mostly Cloudy
11:52 PM 75.0 °F - 54.0 °F 48% 29.81 in 10.0 mi South 9.2 mph - N/A   Mostly Cloudy